Location: Newark
(33.6439°N, 114.9881°W)
Time: 22:59:46
(UTC+00:00)

Transit 2A - All Passes

Search period start: 15 July 2019 00:00
Search period end: 25 July 2019 00:00
Orbit: 594 x 965 km, 66.7° (Epoch: 15 July)

Date Brightness Start Highest point End Pass type
(mag) Time Alt. Az. Time Alt. Az. Time Alt. Az.
15 Jul - 00:52:41 10° SSE 00:57:42 25° ESE 01:02:39 10° NE daylight
15 Jul - 02:34:30 10° SW 02:40:38 49° WNW 02:46:38 10° NNE daylight
15 Jul - 11:26:32 10° NNW 11:31:36 62° ENE 11:36:10 10° SE visible
15 Jul - 13:13:16 10° W 13:13:55 10° W 13:14:34 10° WSW daylight
16 Jul - 00:19:58 10° SE 00:23:47 17° ESE 00:27:34 10° ENE daylight
16 Jul - 02:00:07 10° SSW 02:06:28 70° WNW 02:12:40 10° NNE daylight
16 Jul - 03:48:33 10° WNW 03:50:42 12° NW 03:52:49 10° NNW visible
16 Jul - 10:52:36 10° NNW 10:57:24 39° ENE 11:01:45 10° SE visible
16 Jul - 12:36:55 10° WNW 12:40:06 17° WSW 12:43:06 10° SW daylight
16 Jul - 23:49:01 10° ESE 23:49:56 10° E 23:50:50 10° E daylight
17 Jul - 01:25:58 10° SSW 01:32:21 83° ESE 01:38:35 10° NNE daylight
17 Jul - 03:12:21 10° W 03:16:14 17° NW 03:20:03 10° N visible
17 Jul - 10:18:51 10° N 10:23:08 26° NE 10:27:04 10° ESE visible
17 Jul - 12:02:02 10° NW 12:06:13 28° WSW 12:10:05 10° SSW visible
18 Jul - 00:52:04 10° S 00:58:17 58° ESE 01:04:23 10° NE daylight
18 Jul - 02:36:56 10° WSW 02:41:51 23° NW 02:46:39 10° N daylight
18 Jul - 09:45:20 10° N 09:48:47 18° NE 09:52:01 10° E visible
18 Jul - 11:27:32 10° NW 11:32:17 45° WSW 11:36:36 10° S visible
19 Jul - 00:18:25 10° S 00:24:16 39° ESE 00:30:01 10° NE daylight
19 Jul - 02:01:57 10° WSW 02:07:33 32° WNW 02:13:00 10° N daylight
19 Jul - 09:12:21 10° NNE 09:14:21 12° NE 09:16:18 10° ENE visible
19 Jul - 10:53:15 10° NNW 10:58:16 74° WSW 11:02:47 10° SSE visible
19 Jul - 23:45:06 10° SSE 23:50:18 27° ESE 23:55:25 10° NE daylight
20 Jul - 01:27:15 10° SW 01:33:18 45° WNW 01:39:12 10° NNE daylight
20 Jul - 10:19:09 10° NNW 10:24:10 69° ENE 10:28:42 10° SSE visible
20 Jul - 23:12:16 10° SE 23:16:23 18° ESE 23:20:27 10° ENE daylight
21 Jul - 00:52:49 10° SW 00:59:08 64° WNW 01:05:16 10° NNE daylight
21 Jul - 02:42:06 10° WNW 02:43:25 11° NW 02:44:43 10° NNW daylight
21 Jul - 09:45:12 10° NNW 09:50:00 43° ENE 09:54:22 10° SE visible
21 Jul - 11:29:50 10° WNW 11:32:36 15° WSW 11:35:16 10° SW visible
21 Jul - 22:40:31 10° ESE 22:42:31 12° ESE 22:44:29 10° E daylight
22 Jul - 00:18:36 10° SSW 00:25:00 89° ESE 00:31:12 10° NNE daylight
22 Jul - 02:05:24 10° W 02:08:56 15° NW 02:12:25 10° NNW daylight
22 Jul - 09:11:24 10° N 09:15:45 28° NE 09:19:44 10° ESE visible
22 Jul - 10:54:48 10° NW 10:58:44 25° WSW 11:02:25 10° SSW visible
22 Jul - 23:44:38 10° SSW 23:50:55 63° ESE 23:57:01 10° NNE daylight
23 Jul - 01:29:50 10° W 01:34:33 21° NW 01:39:07 10° N daylight
23 Jul - 08:37:50 10° N 08:41:25 19° NE 08:44:46 10° E visible
23 Jul - 10:20:14 10° NW 10:24:48 40° WSW 10:29:01 10° S visible
23 Jul - 23:10:57 10° S 23:16:53 43° ESE 23:22:42 10° NE daylight
24 Jul - 00:54:46 10° WSW 01:00:13 30° NW 01:05:31 10° N daylight
24 Jul - 08:04:43 10° NNE 08:07:01 13° NE 08:09:13 10° ENE visible
24 Jul - 09:45:54 10° NNW 09:50:49 67° WSW 09:55:15 10° SSE visible
24 Jul - 22:37:33 10° SSE 22:42:54 29° ESE 22:48:09 10° NE daylight
